Gaborone, Botswana

2:54 PM CAT on February 14, 2016 (GMT +0200)
Tlokweng | | Change Station
CLOSE
Current Station
Personal Weather Station
Location: Gaborone, SOUTH-EAST
Elevation: 3212 ft
Nearby Weather Stations

Elev 3212 ft 24.68 °S, 25.95 °E | Updated 10 seconds ago

Partly Cloudy
Partly Cloudy
100.0 °F
Feels Like 95 °F
N
2.5
Wind Variable Wind from SE
Gusts 2.5 mph

Today
High -- | Low -- °F
--% Chance of Precip.
Yesterday
High -- | Low -- °F
Precip. -- in
Pressure 29.92 in
Visibility 6.2 miles
Clouds Few 3000 ft
Few 3500 ft
Heat Index 95 °F
Dew Point 38 °F
Humidity 12%
Rainfall 0.00 in
Snow Depth Not available.
6:01 AM 6:58 PM
Waxing Crescent, 41% visible
METAR FBSK 141200Z 07012KT 020V110 9999 FEW030 FEW035CB 35/12 Q1013 NOSIG
Pressure 29.92 in
Visibility 6.2 miles
Clouds Few 3000 ft
Few 3500 ft
Heat Index 95 °F
Dew Point 38 °F
Humidity 12%
Rainfall 0.00 in
Snow Depth Not available.
6:01 AM 6:58 PM
Waxing Crescent, 41% visible
METAR FBSK 141200Z 07012KT 020V110 9999 FEW030 FEW035CB 35/12 Q1013 NOSIG

10-Day Weather Forecast

No radar image for this location.
×

Almanac

Astronomy

Feb. 14, 2016 Rise Set
Actual Time
Civil Twilight
Nautical Twilight
Astronomical Twilight
Moon
Length of Visible Light
Length of Day
Tomorrow will be .
, % of the Moon is Illuminated

Today's Extremes

Country Highs Country Lows

Community

WunderPhotos

Upload Photos

1,892,775 photos uploaded!

WunderBlog® & News

Nearby

Air Quality

  Air Quality AQ Index Pollutant
Not available.

Snow Depth

Station Depth Elevation

Earthquake Activity

City Distance Mag. Time & Date
Minimum magnitude displayed is 2.5.

Coastal Water Temperatures

Place Temperature

Stations

Nearby Weather Stations

Station Location Temp. Windchill Dew Point Humidity Wind Precip. Elev Updated Type